sat.trackr.live / text

‹ back to catalog

STARLINK-32928

NORAD 63564 · 2025-075S

PAYLOAD ACTIVE UNKNOWN

§ Identity

Operator
Country
US
Launch date
2025-04-13
Launch site
AFETR
Launch vehicle
Mass (kg)
RCS (m²)

Purposes: comms

External: N2YO · Heavens-Above · Gunter

§ Orbital elements

Epoch: 2026-05-25T03:35:37.241376Z

Period
94.26 min
Inclination
43.0009°
Eccentricity
0.0001456
Mean motion
15.27610099 rev/d
Perigee alt
482.0 km
Apogee alt
484.0 km
Semi-major
6,861.1 km
B*
5.8914e-4
RAAN
198.5990°
Arg perigee
270.9489°
Mean anomaly
89.1196°
Rev number
6,363

§ Raw data

STARLINK-329281 63564U 25075S   26145.14973659  .00016000  00000+0  58914-3 0  99912 63564  43.0009 198.5990 0001456 270.9489  89.1196 15.27610099 63630

JSON: /api/v1/satellites/63564 · /tle

For live sub-satellite position, see the globe view (requires WebGL).

§ Visibility from observer

Set your observer location to see the next 7 days of passes ≥ 10°. The values pass through the URL so the page stays shareable.

No JS? Fill the form by hand. The geolocation button needs JavaScript.